Track SBIRS GEO 4 (USA 282) now! SBIRS GEO 4 (USA 282) is classified as:
1 43162U 18009A 23269.94160628 -.00000264 00000-0 00000-0 0 9995 2 43162 2.7248 327.0219 0019305 237.3979 279.2842 1.00516489 20878